Change the Weather History Date:

Monday, November 21, 2011

  Actual Average Record
Temperature  
Mean Temperature 36 °F 41 °F  
Max Temperature 39 °F 52 °F 75 °F (2012)
Min Temperature 33 °F 30 °F 8 °F (1898)
Degree Days  
Heating Degree Days 29 24  
Month to date heating degree days 430 395  
Since 1 July heating degree days 730 713  
Cooling Degree Days 0 0  
Month to date cooling degree days 0 0  
Year to date cooling degree days 2003 1646  
Moisture  
Dew Point 30 °F    
Average Humidity 81    
Maximum Humidity 92    
Minimum Humidity 69    
Precipitation  
Precipitation T in 0.04 in 0.47 in (1979)
Month to date precipitation 2.06 0.92  
Year to date precipitation 19.02 30.23  
Sea Level Pressure  
Sea Level Pressure 30.17 in    
Wind  
Wind Speed 3 mph (ENE)    
Max Wind Speed 10 mph    
Max Gust Speed 13 mph    
Visibility 9 miles    
Events Rain    
T = Trace of Precipitation, MM = Missing Value Source: NWS Daily Summary

Daily Weather History Graph

Daily Weather History Graph

Search for Another Location

Airport or City:

Trip Planner

Search our weather history database for the weather conditions in past years. The results will help you decide how hot, cold, wet, or windy it might be!

Date:

Astronomy

Nov. 21, 2011 Rise Set
Actual Time 7:19 AM CST 5:13 PM CST
Civil Twilight 6:50 AM CST 5:41 PM CST
Nautical Twilight 6:18 AM CST 6:14 PM CST
Astronomical Twilight 5:46 AM CST 6:46 PM CST
Moon 3:01 AM CST (11/21) 2:34 PM CST (11/21)
Length of Visible Light 10h 51m
Length of Day
9h 53m
Waning Crescent, 17% of the Moon is Illuminated
Nov 21
Waning Crescent
Nov 25
New
Dec 2
First Quarter
Dec 10
Full
Dec 17
Last Quarter

Hourly Weather History & Observations

Time (CST) Temp. Windchill Dew Point Humidity Pressure Visibility Wind Dir Wind Speed Gust Speed Precip Events Conditions
12:53 AM 34.0 °F 31.0 °F 26.1 °F 73% 30.25 in 10.0 mi NW 3.5 mph - N/A   Overcast
1:53 AM 34.0 °F 28.8 °F 26.1 °F 73% 30.23 in 10.0 mi NNW 5.8 mph - N/A   Overcast
2:53 AM 33.1 °F 26.9 °F 27.0 °F 78% 30.23 in 10.0 mi North 6.9 mph - N/A   Overcast
3:53 AM 33.1 °F 28.7 °F 26.1 °F 75% 30.24 in 10.0 mi North 4.6 mph - N/A   Overcast
4:53 AM 33.1 °F 30.0 °F 26.1 °F 75% 30.23 in 10.0 mi NNE 3.5 mph - N/A   Overcast
5:53 AM 33.1 °F - 26.1 °F 75% 30.24 in 10.0 mi Calm Calm - N/A   Overcast
6:53 AM 33.1 °F - 27.0 °F 78% 30.25 in 10.0 mi Calm Calm - N/A   Overcast
7:53 AM 33.1 °F 30.0 °F 28.0 °F 82% 30.27 in 10.0 mi SE 3.5 mph - N/A   Overcast
8:14 AM 33.8 °F - 28.4 °F 81% 30.23 in 9.0 mi Calm Calm - N/A   Overcast
8:53 AM 33.1 °F - 28.9 °F 85% 30.25 in 8.0 mi Calm Calm - N/A   Overcast
9:53 AM 34.0 °F - 30.0 °F 85% 30.27 in 8.0 mi Calm Calm - N/A   Overcast
10:53 AM 36.0 °F - 30.0 °F 79% 30.25 in 9.0 mi Calm Calm - N/A   Overcast
11:53 AM 37.0 °F - 30.0 °F 76% 30.22 in 9.0 mi Calm Calm - N/A   Overcast
12:53 PM 37.9 °F - 30.9 °F 76% 30.18 in 8.0 mi Calm Calm - N/A   Overcast
1:53 PM 39.2 °F - 30.2 °F 70% 30.11 in 8.0 mi Calm Calm - N/A   Overcast
2:53 PM 39.0 °F 35.7 °F 32.0 °F 76% 30.11 in 10.0 mi East 4.6 mph - N/A   Overcast
3:44 PM 37.4 °F 33.8 °F 32.0 °F 81% 30.09 in 10.0 mi East 4.6 mph - N/A   Overcast
3:53 PM 37.4 °F 32.1 °F 32.0 °F 81% 30.09 in 10.0 mi East 6.9 mph - N/A   Overcast
4:53 PM 37.0 °F 31.0 °F 33.1 °F 86% 30.12 in 9.0 mi SE 8.1 mph - N/A   Overcast
5:14 PM 37.4 °F 31.4 °F 33.8 °F 87% 30.09 in 10.0 mi ESE 8.1 mph - N/A   Overcast
5:53 PM 37.0 °F 33.3 °F 33.1 °F 86% 30.09 in 10.0 mi East 4.6 mph - N/A   Overcast
6:53 PM 37.0 °F - 33.1 °F 86% 30.11 in 8.0 mi Calm Calm - N/A   Overcast
7:53 PM 37.0 °F 34.5 °F 33.1 °F 86% 30.12 in 8.0 mi ESE 3.5 mph - N/A   Overcast
8:53 PM 37.9 °F 33.5 °F 34.0 °F 86% 30.10 in 8.0 mi East 5.8 mph - N/A   Overcast
9:53 PM 37.0 °F 33.3 °F 34.0 °F 89% 30.10 in 7.0 mi NE 4.6 mph - N/A   Overcast
10:53 PM 37.0 °F 30.4 °F 35.1 °F 93% 30.10 in 5.0 mi NNE 9.2 mph - N/A   Overcast
11:53 PM 37.0 °F 32.4 °F 35.1 °F 93% 30.13 in 3.0 mi North 5.8 mph - 0.00 in Rain Light Rain